Lafayette, LA

9:55 AM CDT on October 21, 2017 (GMT -0500)
Lafayette Regional

Weather History for KLFT - January, 2015

Change the Weather History Date:

Sunday, January 25, 2015

  Actual Average Record
Temperature  
Mean Temperature 54 °F 53 °F  
Max Temperature 67 °F 62 °F 81 °F (1950)
Min Temperature 41 °F 43 °F 19 °F (1963)
Degree Days  
Heating Degree Days 11 13  
Month to date heating degree days 407 325  
Since 1 July heating degree days 980 879  
Growing Degree Days 4 (Base 50)    
Moisture  
Dew Point 42 °F    
Average Humidity 71    
Maximum Humidity 100    
Minimum Humidity 42    
Precipitation  
Precipitation 0.00 in 0.17 in 1.62 in (1919)
Month to date precipitation 4.61 4.59  
Year to date precipitation 4.61 4.59  
Snow  
Snow 0.00 in 0.00 in T in (1961)
Month to date snowfall 0.0 0.0  
Since 1 July snowfall 0.0 0.0  
Snow Depth 0.00 in    
Sea Level Pressure  
Sea Level Pressure 30.01 in    
Wind  
Wind Speed 10 mph (SW)    
Max Wind Speed 25 mph    
Max Gust Speed 33 mph    
Visibility 7 miles    
Events Fog    
T = Trace of Precipitation, MM = Missing Value Source: NWS Daily Summary

Daily Weather History Graph

Daily Weather History Graph

Search for Another Location

Airport or City:

Trip Planner

Search our weather history database for the weather conditions in past years. The results will help you decide how hot, cold, wet, or windy it might be!

Date:

Astronomy

Jan. 25, 2015 Rise Set
Actual Time 7:02 AM CST 5:38 PM CST
Civil Twilight 6:36 AM CST 6:04 PM CST
Nautical Twilight 6:07 AM CST 6:33 PM CST
Astronomical Twilight 5:39 AM CST 7:01 PM CST
Moon 10:35 AM CST (1/25) 11:34 PM CST (1/25)
Length of Visible Light 11h 27m
Length of Day
10h 36m
Waxing Crescent, 34% of the Moon is Illuminated
Jan 25
Waxing Crescent
Jan 26
First Quarter
Feb 3
Full
Feb 11
Last Quarter
Feb 18
New

Hourly Weather History & Observations

Time (CST) Temp. Windchill Dew Point Humidity Pressure Visibility Wind Dir Wind Speed Gust Speed Precip Events Conditions
12:53 AM 45.0 °F 40.6 °F 42.1 °F 90% 30.09 in 10.0 mi WSW 8.1 mph - N/A   Clear
1:53 AM 42.1 °F 37.7 °F 41.0 °F 96% 30.07 in 10.0 mi SSW 6.9 mph - N/A   Clear
2:53 AM 43.0 °F 38.8 °F 42.1 °F 97% 30.06 in 10.0 mi SW 6.9 mph - N/A   Clear
3:53 AM 42.1 °F 38.4 °F 42.1 °F 100% 30.04 in 7.0 mi SSW 5.8 mph - N/A   Clear
4:53 AM 42.1 °F 39.2 °F 42.1 °F 100% 30.04 in 3.0 mi SW 4.6 mph - N/A   Clear
5:02 AM 41.0 °F 37.1 °F 41.0 °F 100% 30.04 in 2.5 mi SSW 5.8 mph - N/A   Clear
5:10 AM 41.0 °F 37.1 °F 41.0 °F 100% 30.04 in 3.0 mi SW 5.8 mph - N/A   Clear
5:17 AM 41.0 °F 37.1 °F 41.0 °F 100% 30.04 in 2.5 mi SSW 5.8 mph - N/A   Clear
5:29 AM 41.0 °F 38.0 °F 41.0 °F 100% 30.04 in 1.5 mi SW 4.6 mph - N/A   Clear
5:51 AM 42.8 °F 38.6 °F 42.8 °F 100% 30.03 in 3.0 mi South 6.9 mph - N/A   Clear
5:53 AM 43.0 °F 39.5 °F 43.0 °F 100% 30.03 in 4.0 mi South 5.8 mph - N/A   Partly Cloudy
5:58 AM 44.1 °F 40.1 °F 44.1 °F 100% 30.03 in 1.8 mi SSW 6.9 mph - N/A   Scattered Clouds
6:05 AM 44.1 °F 40.1 °F 44.1 °F 100% 30.03 in 0.2 mi South 6.9 mph - N/A Fog Fog
6:53 AM 43.0 °F 41.3 °F 43.0 °F 100% 30.04 in 0.2 mi SSW 3.5 mph - N/A Fog Fog
7:06 AM 43.0 °F 40.3 °F 42.1 °F 97% 30.04 in 0.2 mi South 4.6 mph - N/A Fog Fog
7:30 AM 43.0 °F 41.3 °F 42.1 °F 97% 30.03 in 0.2 mi South 3.5 mph - N/A Fog Fog
7:36 AM 43.0 °F 40.3 °F 43.0 °F 100% 30.03 in 1.0 mi South 4.6 mph - N/A   Mist
7:39 AM 44.1 °F 41.5 °F 43.0 °F 96% 30.03 in 10.0 mi South 4.6 mph - N/A   Clear
7:53 AM 44.1 °F - 44.1 °F 100% 30.04 in 10.0 mi Calm Calm - N/A   Partly Cloudy
8:53 AM 53.1 °F - 46.0 °F 77% 30.02 in 10.0 mi SW 10.4 mph - N/A   Clear
9:53 AM 57.9 °F - 44.1 °F 60% 30.01 in 10.0 mi SW 11.5 mph - N/A   Clear
10:53 AM 61.0 °F - 42.1 °F 50% 30.01 in 10.0 mi WSW 11.5 mph 20.7 mph N/A   Clear
11:53 AM 63.0 °F - 42.1 °F 46% 29.99 in 10.0 mi West 15.0 mph - N/A   Clear
12:53 PM 64.9 °F - 41.0 °F 42% 29.95 in 10.0 mi WSW 16.1 mph 29.9 mph N/A   Clear
1:53 PM 66.0 °F - 42.1 °F 42% 29.92 in 10.0 mi SW 17.3 mph 27.6 mph N/A   Clear
2:53 PM 66.0 °F - 42.1 °F 42% 29.94 in 10.0 mi WSW 24.2 mph 31.1 mph N/A   Clear
3:53 PM 64.0 °F - 45.0 °F 50% 29.91 in 10.0 mi WSW 16.1 mph 32.2 mph N/A   Clear
4:53 PM 61.0 °F - 46.0 °F 58% 29.89 in 10.0 mi WSW 15.0 mph 25.3 mph N/A   Clear
5:53 PM 57.9 °F - 46.0 °F 65% 29.91 in 10.0 mi WSW 9.2 mph - N/A   Clear
6:53 PM 55.9 °F - 46.9 °F 72% 29.95 in 10.0 mi West 11.5 mph - N/A   Clear
7:53 PM 54.0 °F - 46.9 °F 77% 29.96 in 10.0 mi WSW 8.1 mph - N/A   Clear
8:53 PM 54.0 °F - 46.0 °F 75% 30.00 in 10.0 mi West 8.1 mph - N/A   Clear
9:53 PM 54.0 °F - 39.0 °F 57% 30.03 in 10.0 mi WNW 9.2 mph - N/A   Clear
10:53 PM 54.0 °F - 34.0 °F 47% 30.04 in 10.0 mi NW 10.4 mph - N/A   Clear
11:53 PM 51.1 °F - 33.1 °F 50% 30.05 in 10.0 mi NW 8.1 mph - N/A   Clear